CZ-6A DEB

Satellite information

Favourite Embed

Satellite Type and Status

DEBRISIN ORBIT

Key statistics

Satellite CZ-6A DEB at a glance.

Uptime

454

Days in orbit

Revolutions

≈ 14.4

Per day

Orbit

LEO

Low Earth Orbit

Inclination

89.0

Latest

Satellite identification and parameters

Extended collection of information and parameters for CZ-6A DEB.

Object identification

Identified? True

Debris? True

Object name: CZ-6A DEB

International designator: 2024-140NV

Object number (NORAD): 61103

Object ID (CCSDS): 61103

Country: PEOPLES REPUBLIC OF CHINA (PRC)

Current information (Y/N): Y

RCS size: SMALL

Orbital parameters

Period: 100.033 minutes

Inclination: 88.9724 deg

SMA: 7138.213 km

Apoapsis: 790.988 km

Periapsis: 729.167 km

RAAN: 297.3785 deg

Eccentricy: 0.00433033

Argument of periapsis: 327.4349 deg

Mean anomaly: 32.4182 deg

Mean motion: 14.39522766 rev/day

Mean motion (dot): 0.00001147 rev/day2

B* drag term: 0.00035952548 1/REarth

Two-line elements (TLE)

Creation date: Nov. 2, 2025, 5:34 p.m.

Reference frame: TEME

Reference center: EARTH

Epoch: Nov. 1, 2025, 11:18 p.m. UTC

TLE line 0: 0 CZ-6A DEB

TLE line 1: 1 61103U 24140NV 25305.97084223 .00001147 00000-0 35953-3 0 9993

TLE line 2: 2 61103 88.9724 297.3785 0043303 327.4349 32.4182 14.39522766 61964

Live tracking on map

Real-time ground track for satellite CZ-6A DEB.

In-orbit conjunctions

A list of the most updated potential collisions computed for object CZ-6A DEB.

Target Orbit TCA Probability of collision Miss distance Type
FENGYUN 1C DEB SSO 2025-02-10 23:08:30 0.000507776 300.0 (m) DEBRIS
NOAA 16 DEB SSO 2024-12-15 09:53:38 0.0002542494 307.0 (m) DEBRIS
COSMOS 2251 DEB LEO 2024-12-13 18:32:49 0.0003205603 330.0 (m) DEBRIS
FENGYUN 1C DEB SSO 2024-11-14 17:00:20 0.0005169669 812.0 (m) DEBRIS
IRIDIUM 33 DEB LEO 2024-10-10 11:17:02 0.0001996216 742.0 (m) DEBRIS

Associated space launch

18 Low Earth Orbit communication satellites with Ku, Q and V band payloads for the G60 constellation operated by Shanghai Spacecom Satellite Technology (SSST) with funding backed by the Shanghai local government. Initial constellation will consist of 1296 satellites by 2027 with long term plans to expand it to 12000 satellites.

CZ-6A DEB was lifted into orbit during the mission ‘Long March 6A | G60 Polar Group 01’, on board a Long March 6A space rocket.

The launch took place on Aug. 6, 2024, 6:42 a.m. from Launch Complex 9A.

For more information about the launch, click the button.

Launch to space Long March 6A | G60 Polar Group 01
Long March 6A | G60 Polar Group 01

Agency: N/A

Status: Launch Successful

Launch date: Aug. 6, 2024, 6:42 a.m. UTC

Rocket: Long March 6A

Launch pad: Launch Complex 9A

Location: Taiyuan Satellite Launch Center, People's Republic of China

...

Latest news about this satellite

News about space launch
Brightness of first Chinese broadband constellation satellites alarms astronomers

The first satellites of a Chinese broadband constellation are significantly brighter than those of Western systems, posing a new challenge for astronomers.

News about space launch
Chinese rocket stage breaks up into cloud of more than 700 pieces of space debris

HELSINKI — A Chinese Long March 6A rocket’s upper stage has fragmented into a cloud of over 700 pieces of space debris, adding to concerns about long-term orbital safety. China […]

News about space launch
China's Thousand Sails Megaconstellation Kicks Off with Dangerous Debris Field

China's Thousand Sails Megaconstellation Kicks Off with Dangerous Debris Field


Newsletter sign-up

Weekly statistics, charts and insights to help you stay on top of the space industry.